Location: Balaclava NSW 2575, Australia
(34.4510°S, 150.4953°E)
Time: 12:02:18
(UTC+10:00)

N. Korean satellite - Pass Details

Date: 19 May 2021
Orbit: 450 x 499 km, 97.2° (Epoch: 24 June)

Event Time Altitude Azimuth Distance (km) Brightness Sun altitude
Rises 17:23:46 0° 172° (S) 2,629 10.0 -5.1°
Reaches altitude 10° 17:25:53 10° 175° (S) 1,737 9.1 -5.5°
Maximum altitude 17:29:36 67° 256° (WSW) 554 7.1 -6.2°
Drops below altitude 10° 17:33:15 10° 339° (NNW) 1,703 9.9 -6.9°
Sets 17:35:19 0° 342° (NNW) 2,572 10.8 -7.3°
